Regional Weather Roundup
Issued by NWS

Home | Current Version | Previous Version | Text Only | Print | Product List | Glossary Off
Versions: 1 2 3 4 5 6 7 8 9 10 11 12 13 14 15 16 17 18 19 20 21 22 23 24 25 26 27 28 29 30 31 32 33 34 35 36 37 38 39 40 41 42 43 44 45 46 47 48 49 50

000
ASUS43 KLSX 250759
RWRMO

WEATHER SUMMARY FOR MISSOURI
NATIONAL WEATHER SERVICE SPRINGFIELD MO
300 AM CDT TUE JUL 25 2017

NOTE: "FAIR" INDICATES FEW OR NO CLOUDS BELOW 12,000 FEET WITH NO
       SIGNIFICANT WEATHER AND/OR OBSTRUCTIONS TO VISIBILITY.
       CURRENT SKY AND/OR WEATHER CONDITIONS ARE NOT AVAILABLE FOR
       CHILLICOTHE AND FARMINGTON.

MOZ001>031-035>038-043-044-053-054-250900-
...NORTHERN AND WESTERN MISSOURI...

CITY           SKY/WX    TMP DP  RH WIND       PRES   REMARKS
KANSAS CTY INT PTCLDY    74  66  76 SE10      30.04F
KANSAS C DTWN  CLEAR     76  67  73 E6        30.03F
LEE`S SUMMIT   CLEAR     71  67  87 E7        30.05F
ST JOSEPH      CLEAR     74  68  81 SE6       30.04S
CHILLICOTHE      N/A     70  67  90 SE6       30.07F
KIRKSVILLE     CLEAR     66  65  96 E5        30.10S

$$
MOZ066>068-077>081-088>096-101>105-250900-
...SOUTHWEST MISSOURI...

CITY           SKY/WX    TMP DP  RH WIND       PRES   REMARKS
SPRINGFIELD    CLEAR     76  69  79 E3        30.04F
JOPLIN         CLEAR     76  73  91 CALM      30.04S

$$
MOZ032>034-039>042-045>050-055>058-069>072-250900-
...CENTRAL MISSOURI...

CITY           SKY/WX    TMP DP  RH WIND       PRES   REMARKS
COLUMBIA       CLEAR     69  67  93 E7        30.06F
JEFFERSON CITY CLEAR     72  69  90 SE5       30.04F
ROLLA          CLEAR     71  66  84 E6        30.04F
SEDALIA        CLEAR     70  69  97 E3        30.07S
WARRENSBURG    CLEAR     68  64  88 NE3       30.05S
OSAGE BEACH    PTCLDY    69  66  90 CALM      30.05F

$$
MOZ051-052-059>065-250900-
...EAST CENTRAL MISSOURI...

CITY           SKY/WX    TMP DP  RH WIND       PRES   REMARKS
ST LOUIS INTL  PTCLDY    75  67  76 NE7       30.06S
SPIRIT OF STL  CLEAR     72  69  90 E3        30.04S
ST CHARLES     CLEAR     71  68  90 NE7       30.06S

$$
MOZ072>076-082>087-097>100-106>115-250900-
...SOUTH CENTRAL AND SOUTHEAST MISSOURI...

CITY           SKY/WX    TMP DP  RH WIND       PRES   REMARKS
CAPE GIRARDEAU CLOUDY    75  72  90 CALM      30.01S
FARMINGTON     PTCLDY    73  69  87 CALM      30.05S
POPLAR BLUFF   CLOUDY    79  78  97 N3        29.99F
WEST PLAINS    CLEAR     74  72  93 CALM      30.05S

$$




USA.gov is the U.S. government's official web portal to all federal, state and local government web resources and services.